Location: Aalen
(48.8330°N, 10.1000°E)
Time: 19:23:29
(UTC+02:00)

S-56A Canister/Altair - Pass Details

Date: 01 August 2021
Orbit: 632 x 2500 km, 38.9° (Epoch: 19 September)

Event Time Altitude Azimuth Distance (km) Brightness Sun altitude
Rises 23:57:31 0° 278° (W) 6,031 12.5 -20.3°
Reaches altitude 10° 00:06:35 10° 247° (WSW) 4,626 11.5 -20.8°
Maximum altitude 00:08:48 11° 237° (WSW) 4,445 11.3 -21.0°
Drops below altitude 10° 00:10:54 10° 227° (SW) 4,361 11.1 -21.1°
Enters shadow 00:13:57 - 212° (SSW) 4,408 11.0 -21.2°
Sets 00:18:12 0° 193° (SSW) 4,804 - -21.5°
